Theta_e
319 323 324 322 320 321 322 322 323 324 324 325 323 323 327 328 329 332 335 346 348 346 348 346 346 345 345 343 341 341 340 344 345 346 345 343 341 338 337 335 334 334 333
321 323 320 320 319 319 320 322 322 322 322 323 322 323 327 328 330 334 335 339 345 346 346 346 346 345 344 342 341 339 339 343 344 344 342 341 339 336 335 334 334 333 333
323 324 319 319 319 319 320 321 321 322 321 322 322 323 328 329 330 334 335 337 341 345 345 345 345 344 342 341 340 340 340 342 343 342 340 339 337 336 335 334 333 332 331
323 320 319 319 321 319 319 319 319 319 320 320 320 323 325 328 330 332 335 333 335 339 344 345 344 343 344 341 341 341 343 344 342 340 339 337 335 336 334 333 332 331 330
322 319 319 320 321 318 318 318 318 320 319 319 320 323 323 324 330 333 334 333 336 337 339 343 343 342 342 341 342 343 344 342 341 339 338 335 335 334 333 332 331 331 329
323 320 320 321 320 317 317 318 317 322 320 319 324 322 321 323 330 331 335 334 336 336 336 338 338 338 340 341 342 344 344 342 338 337 337 336 335 334 333 332 331 329 328
322 318 320 320 320 318 317 318 318 319 318 318 317 316 319 324 327 333 334 335 334 334 335 335 336 336 336 339 340 342 344 341 339 337 336 335 335 333 332 331 330 329 328
325 321 320 320 320 318 317 318 318 316 317 318 316 316 313 321 327 331 332 332 331 333 333 332 333 333 334 335 337 340 342 340 339 336 335 334 334 333 332 331 330 329 328
326 323 323 320 319 319 318 317 318 318 315 317 321 320 314 311 322 327 329 330 329 330 331 330 330 332 332 333 335 337 339 339 338 336 334 333 333 332 331 330 329 328 327
325 325 323 321 320 320 318 319 320 318 319 317 321 324 321 321 318 317 326 327 329 328 328 329 330 331 331 332 335 337 336 338 338 335 333 333 332 331 330 329 328 327 327
325 325 322 321 319 320 320 320 319 319 320 320 322 319 318 319 322 321 317 321 325 327 328 329 330 330 331 332 333 334 334 335 334 334 334 333 331 331 330 329 328 327 327
322 323 323 320 320 320 321 317 319 319 318 323 321 320 319 318 319 320 319 320 320 323 326 329 329 330 331 331 335 333 331 330 328 329 330 331 332 330 329 328 327 327 326
318 319 320 321 320 321 321 320 320 322 319 324 323 319 320 323 323 323 321 319 319 322 324 327 329 331 331 332 334 333 331 326 324 324 325 327 329 330 330 329 328 327 326
319 320 321 322 322 323 323 322 321 322 322 322 321 321 321 325 326 325 322 319 316 318 322 323 329 331 331 331 331 331 327 324 322 321 321 322 324 326 327 327 328 328 328
323 322 322 321 323 324 323 322 324 324 324 323 323 322 321 322 324 325 325 323 319 315 317 322 323 329 331 331 330 327 325 324 323 321 319 320 321 322 322 323 324 323 324
322 323 323 322 322 323 324 325 325 324 325 325 326 324 324 323 323 324 323 323 323 320 316 323 325 328 330 329 330 325 324 324 322 319 319 319 318 318 319 319 319 320 321
322 323 324 324 324 324 324 324 321 323 324 324 325 324 323 323 323 324 324 325 323 323 319 323 326 328 328 325 326 324 324 322 320 318 319 318 316 315 316 316 316 317 318
323 324 325 325 325 324 323 324 324 323 323 322 323 324 324 325 323 324 325 324 323 324 322 320 324 325 325 325 324 322 324 323 319 319 317 316 314 313 312 312 312 312 313
324 325 325 324 325 324 323 323 323 322 322 322 323 324 324 324 323 324 324 324 324 325 323 322 321 322 322 322 319 319 318 316 318 320 315 315 313 313 312 311 310 310 309
325 324 325 327 326 325 325 325 323 321 321 322 323 325 325 325 323 323 323 323 324 323 322 321 320 318 317 316 316 315 314 316 315 316 315 313 312 312 312 310 311 311 308
324 325 327 327 326 326 327 326 325 324 323 323 324 325 325 324 321 322 325 323 323 321 321 318 315 314 313 312 309 311 312 313 314 314 309 308 307 306 307 309 312 312 309
319 322 324 324 324 325 309 313 322 325 324 323 323 324 323 320 318 315 317 317 320 319 316 315 312 313 311 311 311 310 311 311 310 313 309 311 307 307 306 305 306 304 304
316 315 317 319 319 319 307 309 314 325 325 324 323 324 325 326 321 324 313 312 313 311 314 316 313 312 312 313 313 311 311 311 310 313 312 310 310 309 308 309 305 304 302
314 311 312 312 315 316 306 308 311 325 324 323 323 323 324 323 323 319 316 315 314 315 316 317 314 314 314 315 316 315 313 311 311 307 309 307 304 302 307 305 304 304 303
311 311 310 309 311 311 303 304 316 321 321 320 321 320 320 318 308 304 315 312 307 304 303 303 306 305 303 303 310 314 309 307 302 301 303 301 300 300 300 302 303 303 301
312 311 309 308 305 304 302 305 314 319 316 314 314 316 308 312 299 301 313 312 309 305 302 301 299 297 299 300 302 305 304 299 297 297 303 300 299 299 298 301 302 303 301
Wind_Speed
4 3 4 3 4 3 3 4 4 4 5 5 4 5 6 6 6 3 3 15 18 22 26 25 26 26 23 21 18 16 14 15 17 18 18 17 17 17 16 16 15 15 15
5 4 4 4 4 3 3 4 4 4 4 3 5 5 5 5 5 5 4 6 18 22 23 26 26 24 22 21 20 17 17 18 20 19 18 17 16 18 17 16 16 16 16
6 5 4 4 4 3 4 4 4 3 3 3 5 3 5 6 4 6 4 4 8 19 20 22 24 26 23 22 21 19 21 21 20 19 19 17 15 15 17 17 16 16 16
6 5 4 4 4 3 4 3 3 3 3 4 2 3 4 4 5 5 5 4 4 7 17 24 23 27 25 24 23 23 23 21 19 18 19 19 17 16 16 16 16 16 15
5 4 4 4 4 3 4 3 2 3 2 2 3 4 4 3 4 4 5 6 6 7 7 21 22 21 24 25 22 24 23 21 19 18 19 18 17 17 17 16 16 15 14
5 4 4 5 3 3 3 3 3 2 2 3 4 3 2 3 3 4 6 5 6 8 6 9 10 13 22 21 23 25 23 22 20 18 16 17 16 17 17 16 15 14 12
5 5 4 4 4 4 5 5 3 4 3 3 4 1 2 3 5 4 6 6 7 6 9 6 7 7 11 19 23 26 24 21 19 18 15 14 15 17 17 16 15 14 12
6 5 5 4 4 4 5 5 4 3 2 4 4 2 3 3 1 4 4 5 9 7 8 7 10 10 9 6 13 24 23 22 19 16 15 13 14 16 15 15 14 13 11
5 5 5 4 4 4 4 5 5 6 4 2 4 4 3 3 4 3 5 6 9 7 7 9 10 9 9 6 7 15 21 20 18 17 17 15 15 15 16 15 13 12 10
3 4 4 4 4 3 5 5 5 4 5 4 2 1 3 5 4 4 4 6 7 9 9 7 10 9 9 5 8 11 14 17 19 18 16 15 15 15 15 14 13 11 10
1 3 4 3 4 3 4 6 5 6 3 4 3 3 1 3 3 3 6 7 6 6 7 8 9 8 7 6 4 6 11 12 14 13 13 14 14 15 14 13 12 11 10
0 3 4 4 3 4 5 4 4 5 5 6 4 4 4 4 4 3 5 8 8 4 7 7 8 7 6 6 7 10 14 12 11 11 10 11 12 13 12 11 10 9 9
1 3 3 3 2 4 5 5 5 5 5 5 5 4 3 5 5 10 5 4 4 3 3 6 7 6 5 5 6 8 12 11 11 10 10 10 11 11 9 9 9 9 9
3 4 4 3 3 4 5 4 3 3 4 3 6 4 4 6 8 9 8 9 6 1 3 4 4 5 6 5 6 11 8 12 12 11 9 8 7 7 7 7 8 9 8
2 4 4 4 3 4 5 6 5 5 6 7 5 6 5 4 3 4 9 9 9 5 3 4 3 4 7 7 7 5 6 10 10 8 9 8 7 7 7 8 8 8 8
1 4 5 5 5 5 6 8 7 7 10 6 6 8 6 6 6 6 6 4 4 7 5 2 3 5 7 5 7 5 5 7 7 8 8 7 8 8 8 7 8 9 10
1 5 5 6 6 7 6 8 7 8 11 9 8 9 8 7 7 7 7 7 8 7 8 4 3 5 5 6 4 3 3 4 4 7 9 9 9 9 8 8 9 9 9
3 5 5 6 6 7 7 9 8 9 11 9 8 9 10 7 8 7 7 10 7 5 8 10 4 3 3 3 4 4 3 3 4 6 8 8 8 8 9 10 11 11 9
5 6 6 6 7 8 8 7 8 10 9 9 7 8 9 10 9 8 8 8 7 6 5 5 3 2 2 2 3 2 2 1 2 5 7 9 8 12 13 12 10 11 12
5 5 5 6 6 6 8 8 9 8 9 7 6 8 8 8 11 10 9 8 8 7 6 4 3 3 2 2 2 3 0 1 3 2 4 6 7 10 11 10 13 14 15
4 5 7 6 6 6 6 9 8 7 8 7 7 8 7 7 10 9 7 6 7 5 4 3 3 2 2 2 2 2 3 1 2 3 1 3 1 3 6 8 13 14 11
5 5 6 7 6 4 11 11 9 7 7 7 8 8 9 10 11 10 8 6 5 6 5 4 3 3 2 2 3 3 3 1 2 2 2 3 2 4 4 3 6 9 10
5 5 5 6 5 6 14 13 11 7 6 6 7 8 8 6 8 6 5 6 7 9 6 6 6 4 4 6 4 3 3 3 2 2 3 2 3 4 3 4 8 9 8
5 5 6 6 6 5 14 14 11 7 6 6 7 8 8 10 7 6 5 4 1 5 6 4 6 6 5 6 6 5 6 3 2 3 4 2 4 4 5 4 3 4 7
4 3 4 7 7 4 7 10 8 6 6 6 5 5 7 7 8 10 6 6 6 5 5 7 9 8 6 7 6 5 3 4 2 2 4 3 2 3 1 2 3 5 7
5 5 5 5 8 6 7 10 8 4 5 4 3 4 8 8 11 11 8 7 7 5 5 4 5 7 6 7 9 6 5 4 3 2 3 2 2 3 4 2 3 4 6
Wind_Direction
226 225 243 241 244 255 222 214 199 187 206 203 210 211 230 221 216 215 213 202 185 186 169 170 171 173 170 155 152 155 173 161 141 130 123 122 124 121 121 118 117 114 109
215 210 225 234 250 222 224 200 190 191 212 197 230 230 237 225 211 200 210 197 186 187 188 184 180 171 162 154 155 166 186 164 140 127 124 127 130 126 123 124 117 116 114
206 204 220 236 242 234 226 208 197 195 213 210 242 228 222 223 204 179 176 163 184 187 183 182 168 156 154 156 167 181 183 152 137 133 130 128 126 129 128 123 122 119 117
210 201 215 236 242 220 202 185 168 186 211 212 242 200 213 180 185 158 141 134 153 164 170 162 166 157 163 172 180 176 161 142 136 136 131 125 139 129 127 125 123 119 121
224 214 220 234 231 210 200 171 173 168 160 226 169 168 194 163 179 132 145 130 147 151 165 167 164 165 151 168 178 167 152 138 139 139 133 140 136 132 132 128 125 126 126
220 209 235 230 197 183 179 159 173 137 169 200 176 144 131 175 166 126 150 123 114 125 140 156 159 157 154 171 177 161 148 143 139 139 136 137 140 135 137 133 130 132 131
223 209 226 219 184 179 181 167 144 165 214 167 102 51 123 83 128 128 148 121 125 109 135 129 124 151 162 179 173 154 142 138 139 137 135 139 142 145 141 134 140 139 145
207 201 214 219 187 160 165 164 151 116 145 168 150 134 107 44 38 142 133 129 123 121 118 119 122 130 145 157 170 148 140 141 136 143 140 148 146 148 137 141 146 150 149
181 188 210 208 174 170 176 170 163 156 142 118 185 133 114 180 140 162 136 126 126 127 116 124 125 124 124 124 125 152 142 136 143 154 157 151 152 150 148 156 154 155 163
192 174 188 177 157 162 179 178 176 151 131 140 101 19 226 136 179 145 136 133 125 126 124 133 133 131 120 118 144 156 142 141 153 159 155 157 161 159 160 161 157 167 182
158 176 150 175 151 158 171 163 156 144 137 139 148 152 100 69 116 99 136 138 113 118 132 137 139 132 131 124 121 156 144 142 144 156 158 166 163 170 170 166 169 181 193
115 167 133 149 157 155 152 155 130 130 139 133 171 153 154 152 147 91 113 131 134 129 135 130 134 133 131 117 149 162 150 138 140 144 165 168 174 176 177 176 185 192 212
150 162 131 137 155 135 161 159 146 153 143 141 146 151 145 132 124 114 109 125 120 99 124 111 126 121 121 138 142 166 138 140 151 166 170 177 181 182 180 188 200 212 218
155 150 149 140 161 142 136 128 124 131 132 110 123 120 109 134 142 147 140 133 116 86 86 123 118 137 140 137 143 147 152 160 170 172 176 182 185 183 186 202 219 230 231
154 150 157 159 156 129 115 114 113 108 98 108 97 97 93 77 68 102 136 145 152 145 124 108 124 151 139 148 154 146 165 170 175 176 181 181 192 199 201 213 226 235 235
144 148 144 147 135 110 110 114 110 107 109 104 112 109 92 95 91 94 106 100 82 124 115 105 90 135 122 124 159 172 168 169 174 182 187 190 204 213 216 220 231 241 239
165 119 132 125 125 122 115 100 95 109 112 114 114 117 111 111 106 99 99 96 89 88 115 92 83 111 104 133 158 161 157 183 192 195 202 206 212 220 227 232 240 244 242
89 103 106 104 103 102 108 118 118 120 126 113 110 124 123 110 103 108 104 100 102 95 122 118 105 98 95 141 162 167 181 188 198 217 223 225 229 235 239 240 237 240 243
85 113 118 118 119 117 111 102 109 122 129 129 124 129 131 130 118 113 104 109 109 106 89 110 98 90 113 149 129 131 166 248 248 233 228 235 233 237 233 239 248 246 242
99 104 112 112 108 108 115 110 108 104 114 119 112 121 135 133 129 130 117 120 117 110 114 113 108 111 116 96 112 147 159 51 258 236 227 231 221 243 249 249 249 249 243
79 103 103 91 105 115 126 122 121 114 114 117 111 117 111 119 115 114 129 118 115 124 135 132 107 114 144 113 155 157 155 240 286 234 253 257 254 266 262 245 255 261 265
74 93 93 93 85 90 123 119 121 124 124 126 119 113 121 116 111 121 118 117 149 143 151 144 147 148 165 147 143 166 152 114 332 48 212 296 170 258 275 282 295 313 303
101 100 106 114 114 119 127 123 128 140 138 132 130 132 134 141 150 146 155 220 213 193 181 148 158 171 173 197 139 154 175 170 198 322 191 320 6 360 343 347 349 315 294
116 105 106 108 111 114 137 150 139 132 125 133 141 146 149 168 173 158 176 220 206 153 168 185 170 173 190 172 180 169 172 154 59 21 27 73 343 356 13 8 32 2 337
115 110 115 112 113 120 156 143 119 121 126 131 136 154 145 160 184 174 157 136 95 71 43 50 130 134 87 58 107 116 84 91 53 337 355 94 338 290 323 270 282 304 325
141 134 119 116 122 122 158 158 136 128 120 119 127 165 169 158 166 171 148 147 128 166 131 90 60 60 78 68 60 78 135 112 134 33 292 67 332 37 334 293 319 333 352